Epoch = 2006 Dec. 11.0 TT
T = 2006 Dec. 12.4538 TT Peri. = 77.4035
e = 0.604101 Node = 278.3039 2000.0
q = 1.395368 AU Incl. = 1.5532
a = 3.524554 AU n = 0.1489525 P = 6.62 years
軌道要素は Dr. Brian G. Marsden の計算によるもので、
IAUC 8792
に掲載されたものです。
星図は StellaNavigator Ver.2.0 for Windows
(アストロアーツ
編著 / アスキー出版局刊) で作成したものです。
光度グラフはComet for
Windowsで作成したものです。
Copyright(C) Seiichi Yoshida (comet@aerith.net). All rights reserved.